Date,TemperatureHighF,TemperatureAvgF,TemperatureLowF,DewpointHighF,DewpointAvgF,DewpointLowF,HumidityHigh,HumidityAvg,HumidityLow,PressureMaxIn,PressureMinIn,WindSpeedMaxMPH,WindSpeedAvgMPH,GustSpeedMaxMPH,PrecipitationSumIn
2013-3-7,39.0,39.0,39.0,-99.9,-99.9,-99.9,0,0,100,29.50,29.50,15,15,0,0.00
2013-3-8,39.0,39.0,39.0,-99.9,-99.9,-99.9,0,0,100,29.53,29.53,10,10,0,0.00
2013-3-9,32.0,32.0,32.0,-99.9,-99.9,-99.9,0,0,100,29.77,29.77,2,2,0,0.00
2013-3-10,32.0,32.0,32.0,-99.9,-99.9,-99.9,0,0,100,30.03,30.03,15,15,0,0.00
2013-3-11,32.0,32.0,32.0,-99.9,-99.9,-99.9,0,0,100,30.27,30.27,10,10,0,0.00
2013-3-12,32.0,32.0,32.0,-99.9,-99.9,-99.9,0,0,100,30.24,30.24,28,28,0,0.00
2013-3-13,28.0,28.0,28.0,-99.9,-99.9,-99.9,0,0,100,29.94,29.94,34,34,0,0.00
2013-3-14,21.0,21.0,21.0,-99.9,-99.9,-99.9,0,0,100,29.77,29.77,0,0,0,0.00
2013-3-15,27.0,27.0,27.0,-99.9,-99.9,-99.9,0,0,100,29.80,29.80,22,22,0,0.00
2013-3-16,-200.0,0.0,200.0,-99.9,-99.9,-99.9,0,0,100,29.88,29.88,10,10,0,0.00
2013-3-17,21.0,21.0,21.0,-99.9,-99.9,-99.9,0,0,100,30.12,30.12,6,6,0,0.00
2013-3-18,21.0,21.0,21.0,-99.9,-99.9,-99.9,0,0,100,29.97,29.97,10,10,0,0.00
2013-3-19,23.0,23.0,23.0,-99.9,-99.9,-99.9,0,0,100,29.88,29.88,15,15,0,0.00
2013-3-20,19.0,19.0,19.0,-99.9,-99.9,-99.9,0,0,100,29.88,29.88,23,23,0,0.00
2013-3-21,20.0,19.9,19.0,-99.9,-99.9,-99.9,0,0,100,30.19,30.03,10,10,0,0.00
2013-3-22,28.0,23.8,19.0,-99.9,-99.9,-99.9,0,0,100,30.03,29.86,22,15,0,0.00
2013-3-23,31.0,29.4,28.0,-99.9,-99.9,-99.9,0,0,100,29.84,29.77,22,18,0,0.00
2013-3-24,25.0,22.9,20.0,-99.9,-99.9,-99.9,0,0,100,29.83,29.65,15,11,0,0.00
2013-3-25,21.0,18.8,18.0,-99.9,-99.9,-99.9,0,0,100,29.59,29.45,22,12,0,0.00
2013-3-26,18.0,11.9,8.0,-99.9,-99.9,-99.9,0,0,100,30.05,29.85,15,11,0,0.00
2013-3-27,16.0,13.1,8.0,-99.9,-99.9,-99.9,0,0,100,30.28,30.18,15,12,0,0.00
2013-3-28,25.0,20.0,15.0,-99.9,-99.9,-99.9,0,0,100,30.12,29.90,28,23,0,0.00
2013-3-29,33.0,28.4,19.0,-99.9,-99.9,-99.9,0,0,100,29.88,29.83,34,26,0,0.00
2013-3-30,38.0,34.1,30.0,-99.9,-99.9,-99.9,0,0,100,30.18,30.09,10,9,0,0.00
2013-3-31,38.0,32.9,27.0,-99.9,-99.9,-99.9,0,0,100,30.25,30.14,15,8,0,0.00